Regional Weather Roundup
Issued by NWS

Home | Current Version | Previous Version | Graphics & Text | Print | Product List | Glossary On
Versions: 1 2 3 4 5 6 7 8 9 10 11 12 13 14 15 16 17 18 19 20 21 22 23 24 25 26 27 28 29 30 31 32 33 34 35 36 37 38 39 40 41 42 43 44 45 46 47 48 49 50
000
ASUS43 KTOP 290459
RWRKS

WEATHER ROUNDUP FOR KANSAS
NATIONAL WEATHER SERVICE GOODLAND KS
1200 AM CDT WED MAR 29 2017

NOTE:  "FAIR" INDICATES FEW OR NO CLOUDS BELOW 12,000 FEET WITH NO
SIGNIFICANT WEATHER AND/OR OBSTRUCTIONS TO VISIBILITY.

KSZ001>006-013>018-027>032-041>047-290600-
NORTHWEST KANSAS

CITY           SKY/WX    TMP DP  RH WIND       PRES   REMARKS
GOODLAND       LGT RAIN  39  39 100 NE12      29.97F FOG     WCI  32
HAYS           LGT RAIN  45  44  97 NE20G26   29.93F FOG
HILL CITY      LGT RAIN  44  43  96 NE15      30.00F FOG
RUSSELL        LGT RAIN  45  44  97 NE20G26   29.91F FOG
$$

KSZ061>065-074>080-084>089-290600-
SOUTHWEST KANSAS

CITY           SKY/WX    TMP DP  RH WIND       PRES   REMARKS
DODGE CITY     CLOUDY    47  45  93 NE16G29   29.85R
ELKHART          N/A     42  37  82 N12         N/A
GARDEN CITY    CLOUDY    44  43  96 NE24G31   29.88S FOG
GREAT BEND     LGT RAIN  48  47  96 NE20      29.89R
LIBERAL        CLOUDY    46  41  81 NE14      29.85S
$$

KSZ066>073-081>083-090>101-290600-
SOUTHEAST KANSAS

CITY           SKY/WX    TMP DP  RH WIND       PRES   REMARKS
CHANUTE        CLOUDY    57  49  74 E20G29    29.77F
COFFEYVILLE    LGT RAIN  59  53  80 E16G28    29.74F
MEDICINE LODGE   N/A     48  47  96 NE25G37   29.79F
NEWTON         RAIN      49  48  97 N25       29.86F FOG
PARSONS        LGT RAIN  60  51  72 E14G26    29.75F
WICHITA INTL   TSTM      51  51 100 N28G36    29.82F FOG
WICHITA JABRA  HVY RAIN  50  50 100 N26G35    29.83S FOG
WICHITA MCCONL HVY RAIN  50  48  93 N25G35    29.81S FOG
WINFIELD       HVY RAIN  53  52  96 N15G28    29.79R FOG
$$

KSZ007>012-019>026-033>040-048>060-102>105-290600-
NORTHEAST KANSAS

CITY           SKY/WX    TMP DP  RH WIND       PRES   REMARKS
CONCORDIA      LGT RAIN  46  46 100 NE15      29.96F FOG
EMPORIA        LGT RAIN  51  51 100 NE16      29.88F FOG
LAWRENCE       CLOUDY    53  50  89 E16       29.96F
MANHATTAN      RAIN      51  49  92 NE13      29.98S FOG
OLATHE IND     CLOUDY    53  49  86 E15G24    29.96R
OLATHE EXE     CLOUDY    52  50  93 E15G25    29.94F
SALINA         HVY RAIN  51  49  92 E15G23    29.93F FOG
TOPEKA BILLARD CLOUDY    54  50  86 NE15      29.96R
TOPEKA FORBES  CLOUDY    54  50  86 NE7G18    29.97R
$$




USA.gov is the U.S. government's official web portal to all federal, state and local government web resources and services.